This is the latest recevied weather packets stored in our database for station/object KD2SIG. If no packets are shown the sender has not sent any weather packets the latest 10 day(s).
| Time | Temp. | Humidity | Pressure | Rain* | Wind** | Luminosity | Snow |
|---|---|---|---|---|---|---|---|
| 1777985239 | 20° C | 66% | 1002.4 hPa | 0 mm | - | 271 W/m² | - |
| 1777984936 | 20° C | 67% | 1002.7 hPa | 0 mm | - | 207 W/m² | - |
| 1777984631 | 19.44° C | 68% | 1002.5 hPa | 0 mm | - | 269 W/m² | - |
| 1777984329 | 19.44° C | 67% | 1002.6 hPa | 0 mm | - | 225 W/m² | - |
| 1777984025 | 19.44° C | 67% | 1002.6 hPa | 0 mm | - | 330 W/m² | - |
| 1777983722 | 19.44° C | 67% | 1002.6 hPa | 0 mm | - | 141 W/m² | - |
| 1777983419 | 19.44° C | 68% | 1002.6 hPa | 0 mm | - | 258 W/m² | - |
| 1777983115 | 18.89° C | 70% | 1002.8 hPa | 0 mm | - | 229 W/m² | - |
| 1777982811 | 18.33° C | 70% | 1002.6 hPa | 0 mm | - | 161 W/m² | - |
| 1777982508 | 17.78° C | 71% | 1002.9 hPa | 0 mm | - | 109 W/m² | - |
| 1777982201 | 17.78° C | 73% | 1002.6 hPa | 0 mm | - | 69 W/m² | - |
| 1777981899 | 17.78° C | 72% | 1002.7 hPa | 0 mm | - | 72 W/m² | - |
| 1777981596 | 17.78° C | 72% | 1002.7 hPa | 0 mm | - | 73 W/m² | - |
| 1777981292 | 17.78° C | 73% | 1002.5 hPa | 0 mm | - | 49 W/m² | - |
| 1777980989 | 17.78° C | 72% | 1002.6 hPa | 0 mm | - | 59 W/m² | - |
| 1777980686 | 17.78° C | 72% | 1002.4 hPa | 0 mm | - | 51 W/m² | - |
| 1777980382 | 17.78° C | 73% | 1002.4 hPa | 0 mm | - | 39 W/m² | - |
| 1777980080 | 17.78° C | 73% | 1002.4 hPa | 0 mm | - | 30 W/m² | - |
| 1777979774 | 17.78° C | 74% | 1002.4 hPa | 0 mm | - | 51 W/m² | - |
| 1777979470 | 17.22° C | 74% | 1002.2 hPa | 0 mm | - | 52 W/m² | - |
| 1777979167 | 17.22° C | 76% | 1002.1 hPa | 0 mm | - | 75 W/m² | - |
| 1777978864 | 16.67° C | 77% | 1002.3 hPa | 0 mm | - | 76 W/m² | - |
| 1777978560 | 16.11° C | 79% | 1002.3 hPa | 0 mm | - | 58 W/m² | - |
| 1777978256 | 15.56° C | 81% | 1002 hPa | 0 mm | - | 46 W/m² | - |
| 1777977953 | 15.56° C | 82% | 1002.2 hPa | 0 mm | - | 37 W/m² | - |
* Rain latest hour (hover to see other rain measurements)
** Current wind speed in m/s (hover to see current wind gust speed)